www.pogodaiklimat.ru

Погода и климат >> Архив погоды >> Канада >> Cambridge Bay Arpt


ПОГОДА в Cambridge Bay Arpt

  • Прогноз погоды в Cambridge Bay Arpt
  • Монитор погоды в Cambridge Bay Arpt
  • Климат города

АРХИВ ПОГОДЫ в Cambridge Bay Arpt

Время (UTC), дата Ветер
(напр.,м/с)
 
Видим.   Явления Облачность Т
(С)
Тd
(С)
f
(%)
Тe
(С)
Тes
(С)
Комфортность P
(гПа)
Po
(гПа)
Тmin
(С)
Tmax
(С)
R
(мм)
R24
(мм)
S
(см)
18 19.06 С 6 24 км 8/6 100 м
[Sc Ac trans]
+3.2 -0.8 75 -2 -1 1014.5 1010.5 +1.6 +3.3
21 19.06 С 5 24 км 6/6 300 м
[]
+4.5 -0.6 69 -0 +2 1015.3 1011.3
00 20.06 С 6 24 км 6/5 300 м
[Sc Ac trans]
+4.0 -1.0 70 -1 -0 1015.5 1011.5 +1.6 +4.7
03 20.06 С 6 24 км 9/9 300 м
[]
+2.7 -1.2 75 -3 -3 1015.8 1011.8
06 20.06 С 6 19 км осадки на расстоянии 10/10 300 м
[Sc]
+1.2 -1.5 82 -5 -5 1016.4 1012.4 +1.0 +4.7 81
09 20.06 С 5 8000 м 9/9 100 м
[]
-0.1 -2.0 87 -6 -6 1016.6 1012.6
12 20.06 С 4 16 км слабый снег {дождь} 10/10 100 м
[Sc]
-0.2 -2.2 86 -6 -6 1016.8 1012.8 -0.5 +4.7 0.0
15 20.06 С 5 19 км 10/10 200 м
[]
+1.8 -2.2 75 -3 -3 1016.8 1012.8
18 20.06 С 3 24 км {снег} 9/9 300 м
[Sc]
+3.2 -1.7 70 -1 0 1016.2 1012.2 -0.5 +3.5 0.0
21 20.06 С 4 24 км 9/9 300 м
[]
+3.9 -1.2 69 -0 0 1015.8 1011.8
00 21.06 С 6 24 км осадки на расстоянии 9/9 300 м
[Cu Sc]
+4.4 -1.4 66 -0 -0 1015.4 1011.4 -0.5 +5.0
03 21.06 СВ 5 24 км 9/9 300 м
[]
+3.1 -0.7 76 -2 -2 1015.5 1011.5
06 21.06 С 5 24 км 10/10 300 м
[Sc]
+2.1 -1.4 78 -3 -3 1015.5 1011.5 -0.5 +5.0 0
09 21.06 С 5 24 км 10/10 300 м
[]
+0.7 -1.2 87 -5 -5 1015.3 1011.3
12 21.06 С 4 24 км 10/10 300 м
[Sc]
+0.8 -1.6 84 -5 -5 1015.2 1011.2 +0.1 +5.0
15 21.06 СВ 6 24 км 9/9 300 м
[]
+1.9 -1.2 80 -4 -4 1015.8 1011.8
18 21.06 СВ 6 24 км 5/4 300 м
[Sc Ac trans]
+5.3 +0.2 70 +1 +3 1015.6 1011.6 -0.5 +5.6
21 21.06 С 5 24 км 5/5 600 м
[]
+7.7 +0.8 62 +4 +7 1015.7 1011.7
00 22.06 С 5 24 км 5/4 300 м
[Sc Ac As]
+7.9 +1.9 66 +4 +6 1016.1 1012.1 -0.5 +8.2
03 22.06 С 4 24 км 9/9 300 м
[]
+4.7 +0.8 76 +1 +1 1016.8 1012.8
06 22.06 С 3 24 км 9/9 300 м
[Sc]
+3.7 -0.1 76 0 0 1016.9 1012.9 -0.5 +8.2 23
09 22.06 СЗ 4 24 км 3/3 300 м
[]
+2.0 +0.5 90 -3 -3 1016.6 1012.6
12 22.06 С 5 24 км 6/0
[Ac As]
+2.7 +0.5 85 -2 -2 1017.1 1013.1 +1.9 +8.2
15 22.06 С 5 24 км 4/0
[]
+6.5 +0.9 67 +3 +6 1016.9 1012.9
18 22.06 С 5 24 км 3/1 600 м
[Cu hum Ac As]
+9.1 +1.7 60 +6 +10 1017.4 1013.4 +1.9 +9.1
21 22.06 С 5 24 км 6/6 600 м
[]
+10.4 +2.0 56 +8 +10 1018.0 1014.0
00 23.06 С 6 24 км 5/1 600 м
[Cu Sc Ac As]
+11.1 +1.7 52 +9 +10 1018.7 1014.7 +1.9 +11.5
03 23.06 С 4 24 км 4/4 1500 м
[]
+10.3 +1.8 56 +8 +8 1019.3 1015.3
06 23.06 С 2 24 км 4/1 1500 м
[Sc Ac As]
+7.1 +2.5 73 +6 +6 1019.4 1015.4 +1.9 +11.5 23
09 23.06 З 2 24 км 3/3 1500 м
[]
+4.8 +1.5 79 +2 +2 1019.4 1015.4
12 23.06 ЮЗ 3 24 км 5/3 1000 м
[Sc Ci fib]
+4.2 +0.5 77 +1 +2 1019.1 1015.1 +3.8 +11.5
15 23.06 З 5 24 км 5/5 1000 м
[]
+7.1 +2.8 74 +3 +5 1018.4 1014.4
18 23.06 З 7 24 км 1/1 1000 м
[Cu hum Ac trans Ci fib]
+9.0 +4.7 74 +5 +7 1017.9 1013.9 +3.8 +10.0
21 23.06 З 7 24 км 6/6 1000 м
[]
+9.5 +4.0 69 +6 +7 1017.2 1013.2
00 24.06 З 6 24 км 9/8 600 м
[Sc Ac trans]
+6.9 +3.1 77 +3 +3 1016.5 1012.5 +3.8 +10.2
03 24.06 С 8 24 км 10/10 600 м
[]
+8.9 +6.0 82 +5 +5 1017.1 1013.1
06 24.06 С 5 24 км 4/1 300 м
[Sc Ac As Ci fib]
+4.6 +2.2 84 0 0 1018.9 1014.9 +3.8 +11.0 5
09 24.06 СЗ 3 24 км 9/9 300 м
[]
+4.1 +1.7 84 +1 +1 1019.7 1015.7
12 24.06 24 км н/о +3.3 +2.2 92 -2 -2 1020.3 1016.3 +3.1 +11.0
15 24.06 СЗ 5 24 км 9/9 200 м
[]
+7.3 +1.8 68 +4 +4 1020.4 1016.4
18 24.06 СЗ 5 24 км слабый ливневой дождь 9/9 200 м
[Cu Sc]
+7.6 +3.4 75 +4 +5 1020.4 1016.4 +3.1 +7.8 0.0
21 24.06 СЗ 2 24 км 8/8 200 м
[]
+8.9 +3.5 69 +7 +9 1020.4 1016.4
00 25.06 ЮЗ 4 24 км {ливн. осадки} 4/1 200 м
[Cu Sc Ci fib]
+8.0 +3.4 73 +5 +7 1019.7 1015.7 +3.1 +10.1 0.0
03 25.06 Ю 5 24 км 8/8 600 м
[]
+7.1 +3.5 78 +3 +3 1017.0 1013.0
06 25.06 Ю 9 24 км слабый ливневой дождь 9/9 600 м
[Sc Ac As]
+5.0 +3.4 89 -1 -1 1014.5 1010.5 +3.1 +10.1 0.0 61
09 25.06 Ю 9 24 км 10/10 600 м
[]
+5.8 +4.1 89 -0 -0 1011.0 1007.0
12 25.06 ЮЗ 5 24 км {ливн. осадки} 9/6 600 м
[Sc Ac trans Cs]
+3.5 +2.2 91 -2 -1 1010.3 1006.3 +3.0 +10.1 0.0
15 25.06 С 10 24 км 10/10 200 м
[]
+7.2 +5.1 86 +2 +2 1011.5 1007.5
18 25.06 С 9 24 км 8/8 200 м
[Cu Sc]
+8.6 +4.8 77 +4 +4 1013.7 1009.7 +3.0 +8.7
21 25.06 С 7 24 км 10/10 200 м
[]
+7.7 +4.3 79 +3 +3 1015.3 1011.3
00 26.06 СВ 6 24 км 9/9 200 м
[Cu Sc]
+8.0 +5.0 81 +4 +4 1016.7 1012.7 +3.0 +8.9
03 26.06 В 4 24 км 9/9 200 м
[]
+6.4 +4.0 85 +3 +3 1018.5 1014.5
06 26.06 В 3 24 км 8/8 300 м
[Sc]
+5.0 +3.3 89 +2 +2 1019.6 1015.6 +3.0 +8.9 101
09 26.06 В 2 24 км 8/8 300 м
[]
+3.9 +3.0 94 +1 +1 1020.6 1016.6
12 26.06 В 3 24 км 6/1 300 м
[Sc Ac trans Ci fib]
+5.2 +3.5 89 +2 +3 1021.1 1017.1 +3.5 +8.9
15 26.06 ЮВ 3 24 км 6/6 300 м
[]
+9.0 +4.2 72 +7 +9 1021.1 1017.1

 

Местоположение метеостанции Cambridge Bay Arpt (Канада): широта 69.10 долгота -105.10 высота над уровнем моря 27 м.

В архиве по умолчанию представлена погода в Cambridge Bay Arpt за последнюю неделю. Архивные данные за месяц целиком и за предыдущие месяцы, начиная с января 2011 года, Вы можете получить, выбрав интересующий диапазон дат из раскрывающегося списка и нажав кнопку "Ввод!".

Внимание! Время в таблицах - всемирное. Для получения местного времени необходимо прибавить поправку, которая в Cambridge Bay Arpt равна -7 ч.

Смотрите также архив погоды в соседних городах и на ближайших метеорологических станциях:

Погода в Cape Peel West (Канада) (108 км)
Погода в Ellice River AWS (Канада) (158 км)
Погода в Hat Island (Канада) (223 км)
Погода в Gjoa Haven Climate (Канада) (374 км)
Погода в Kugluktuk (Канада) (432 км)
Погода в Kugluktuk Airport (Канада) (432 км)
Погода в Lupin (Канада) (452 км)
Погода в Lupin (maps) (Канада) (452 км)
Погода в Spence bay (Канада) (454 км)
Погода в Robertson Lake (Канада) (460 км)

Пояснения к столбцам:

Ветер - указаны скорость ветра в м/с - средняя за 10 мин, порывы в срок и между сроками (в фигурных скобках) и направление, откуда дует ветер: С - северный, СВ - северо-восточный, В - восточный, ЮВ - юго-восточный, Ю - южный, ЮЗ - юго-западный, З - западный, СЗ - северо-западный.
Видимость - горизонтальная дальность видимости в метрах или километрах. При видимости от 1 до 10 км при отсутствии осадков обычно наблюдается дымка, при ухудшении видимости до 1 км и менее - туман. В сухую погоду видимость может ухудшаться дымом, пылью или мглою.
Явления - указаны атмосферные явления, наблюдавшиеся в срок или в последний час перед сроком; фигурными скобками обозначены явления, наблюдавшиеся между сроками (за 1-3 часа до срока); квадратными скобками обозначены град или гололедные отложения с указанием их диаметра в мм.
Облачность - указаны через наклонную черту общая и нижняя облачность в баллах и высота нижней границы облаков в метрах; квадратными скобками обозначены формы облаков: Ci - перистые, Cs - перисто-слоистые, Cc - перисто-кучевые, Ac - высококучевые, As - высокослоистые, Sc - слоисто-кучевые, Ns - слоисто-дождевые, Cu - кучевые, Cb - кучево-дождевые. Подробнее классификацию облаков см. в Атласе облаков (PDF).
T - Температура воздуха - температура, измеренная на высоте 2 м над землей.
Td - Температура точки росы - температура, при понижении до которой содержащийся в воздухе водяной пар достигнет насыщения.
f - Относительная влажность воздуха - влажноcть воздуха, измеренная на высоте 2 м над землей.
Te - Эффективная температура - температура, которую ощущает одетый по сезону человек в тени. Характеристика душности погоды. При расчете учитывается влияние влажности воздуха и скорости ветра на теплоощущения человека.
Tes - Эффективная температура на солнце - температура, которую ощущает человек, с поправкой на солнечный нагрев. Характеристика знойности погоды. Зависит от высоты солнца над горизонтом, облачности и скорости ветра. Ночью, в пасмурную погоду, а также при ветре 12 м/с и более поправка равна нулю.
P - Атмосферное давление - приведенное к уровню моря атмосферное давление.
Po - Атмосферное давление - измеренное на уровне метеостанции атмосферное давление.
Tmin - Минимальная температура - минимум температуры воздуха на высоте 2 м над землей.
Tmax - Максимальная температура - максимум температуры воздуха на высоте 2 м над землей.
R - Количество осадков - Количество выпавших осадков за период времени, мм. При наведении курсора мыши на число - период времени, за который выпало указанное количество осадков.
R24 - Количество осадков - Количество выпавших осадков за 24 часа, мм.
S - Снежный покров - Высота снежного покрова, см. При наведении курсора мыши на число - состояние снежного покрова и степень покрытия местности в баллах.